Weather Roundup
Issued by NWS Chicago, IL

Home | Current Version | Previous Version | Text Only | Print | Product List | Glossary Off
Versions: 1 2 3 4 5 6 7 8 9 10 11 12 13 14 15 16 17 18 19 20 21 22 23 24 25 26 27 28 29 30 31 32 33 34 35 36 37 38 39 40 41 42 43 44 45 46 47 48 49 50

000
NZUS59 KLOT 230610
HRRLOT

CHICAGO AREA WEATHER ROUNDUP
NATIONAL WEATHER SERVICE CHICAGO/ROMEOVILLE IL
100 AM CDT WED APR 23 2014

NOTE: "FAIR" INDICATES FEW OR NO CLOUDS BELOW 12,000 FEET WITH NO
SIGNIFICANT WEATHER AND/OR OBSTRUCTIONS TO VISIBILITY.

* THESE STATIONS ARE NOT UNDER NWS QUALITY CONTROL. THEY ALSO MAY NOT
  REPORT WEATHER SUCH AS PRECIPITATION OR FOG.

ILZ005-006-012>014-019>023-230700-
NORTHEAST ILLINOIS

CITY           SKY/WX    TMP DP  RH WIND       PRES   REMARKS
OHARE            N/A     39  26  59 NE6       30.10R
6HR MIN TEMP:  36; 6HR MAX TEMP:  47;

MIDWAY           N/A     40  29  64 NE14      30.10R
6HR MIN TEMP:  40; 6HR MAX TEMP:  46;

AURORA           N/A     34  26  72 N5        30.10R WCI  30
6HR MIN TEMP:  32; 6HR MAX TEMP:  55;

LANSING*         N/A     39  28  64 NE10      30.10R
JOLIET*          N/A     39  28  65 CALM      30.11R
WAUKEGAN         N/A     34  28  79 NE8       30.11R WCI  27
6HR MIN TEMP:  31; 6HR MAX TEMP:  42;

DUPAGE AIRPORT   N/A     34  26  72 N3        30.10R
6HR MIN TEMP:  34; 6HR MAX TEMP:  49;

WHEELING         N/A     38  29  70 NE8       30.12R
6HR MIN TEMP:  37; 6HR MAX TEMP:  45;

KANKAKEE*        N/A     37  31  79 NE5       30.09S
MORRIS*          N/A     37  28  72 CALM      30.10R
LEWIS AIRPORT*   N/A     36  28  73 NE6       30.10R
NORTHERLY IS     N/A     39  30  70 NE15        N/A
$$

WIZ051-052-058>065-066-070>072-230700-
SOUTHEAST WISCONSIN

CITY           SKY/WX    TMP DP  RH WIND       PRES   REMARKS
MILWAUKEE        N/A     35  29  78 NE12G18   30.12S WCI  27
6HR MIN TEMP:  35; 6HR MAX TEMP:  43;

KENOSHA*         N/A     33  28  81 NE6       30.11R WCI  28
RACINE*          N/A     35  29  78 NE12      30.13R WCI  27
BURLINGTON       N/A     32  28  85 E5        30.12R WCI  28
WAUKESHA         N/A     32  28  86 CALM      30.13R
WEST BEND        N/A     32  28  86 E3        30.11R
$$

INZ001>003-010>013-019-020-230700-
NORTHWEST INDIANA

CITY           SKY/WX    TMP DP  RH WIND       PRES   REMARKS
GARY*            N/A     40  30  66 N10       30.11R
6HR MIN TEMP:  40; 6HR MAX TEMP:  45;

MICHIGAN CITY* NOT AVBL
RENSSELAER*    NOT AVBL
VALPARAISO       N/A     36  28  73 NW6       30.08R
$$

LMZ740>746-230700-
SOUTHERN LAKE MICHIGAN

STATION/POSITION TIME  SKY/WX   TEMP WIND        PRES    VSBY
                                AIR  DIR/SP/G
                 (UTC)          (F)  (DEG/KT/KT) (MB)    (MI)
HARRISON CRIB    0600            38  360/ 12/ 15   N/A
BURNHAM HARBOR   0600            39   10/ 10/ 17   N/A
CALUMET HARBOR   0600            39  350/ 12/ 15 1020.1R
BURNS HARBOR     NOT AVBL
MICHIGAN CITY    0600            38  330/ 16/ 18   N/A
$$

ABBREVIATIONS USED IN REMARKS
   TC - TEMPERATURE IN CELSIUS
  WCI - WIND CHILL INDEX
   HX - HEAT INDEX
  VSB - VISIBILITY
$$


USA.gov is the U.S. government's official web portal to all federal, state and local government web resources and services.